Location: ??????
(41.3164°N, 22.6615°E)
Time: 01:32:21
(UTC+00:00)

BEESAT 2 - Pass Details

Date: 01 July 2022
Orbit: 481 x 508 km, 64.9° (Epoch: 07 August)

Event Time Altitude Azimuth Distance (km) Brightness Sun altitude
Rises 18:38:22 0° 319° (NW) 2,624 ? -5.7°
Reaches altitude 10° 18:40:39 10° 312° (NW) 1,735 ? -6.1°
Maximum altitude 18:44:15 37° 244° (WSW) 802 ? -6.6°
Drops below altitude 10° 18:47:49 10° 176° (S) 1,721 ? -7.1°
Enters shadow 18:49:19 - 169° (S) 2,304 ? -7.3°
